TimeEST,TemperatureF,Dew PointF,Humidity,Sea Level PressureIn,VisibilityMPH,Wind Direction,Wind SpeedMPH,Gust SpeedMPH,PrecipitationIn,Events,Conditions,WindDirDegrees,DateUTC
12:13 AM,15.6,5.0,63,29.92,10.0,South,17.3,26.5,N/A,,Mostly Cloudy,190,2014-01-04 05:13:00
12:33 AM,15.8,5.5,64,29.90,10.0,South,15.0,25.3,N/A,,Overcast,180,2014-01-04 05:33:00
12:54 AM,16.2,5.9,64,29.89,10.0,South,13.8,26.5,N/A,,Overcast,180,2014-01-04 05:54:00
1:14 AM,16.3,6.4,65,29.90,10.0,South,16.1,25.3,N/A,,Overcast,190,2014-01-04 06:14:00
1:34 AM,16.7,6.8,65,29.88,10.0,South,15.0,23.0,N/A,,Overcast,180,2014-01-04 06:34:00
1:54 AM,16.7,7.0,66,29.86,10.0,South,13.8,18.4,N/A,,Overcast,170,2014-01-04 06:54:00
2:14 AM,17.2,7.5,66,29.85,10.0,South,12.7,20.7,N/A,,Overcast,170,2014-01-04 07:14:00
2:34 AM,17.6,8.2,67,29.85,10.0,South,11.5,16.1,N/A,,Overcast,170,2014-01-04 07:34:00
2:54 AM,18.1,8.6,66,29.84,10.0,South,11.5,17.3,N/A,,Overcast,170,2014-01-04 07:54:00
3:14 AM,18.3,9.0,67,29.84,10.0,South,10.4,21.9,N/A,,Overcast,170,2014-01-04 08:14:00
3:34 AM,18.3,9.1,67,29.83,10.0,South,11.5,16.1,N/A,,Overcast,170,2014-01-04 08:34:00
3:54 AM,18.5,9.3,67,29.82,10.0,South,10.4,17.3,N/A,,Overcast,170,2014-01-04 08:54:00
4:14 AM,18.5,9.5,68,29.81,10.0,South,10.4,-,N/A,,Overcast,170,2014-01-04 09:14:00
4:35 AM,18.5,9.5,68,29.80,10.0,South,10.4,-,N/A,,Overcast,170,2014-01-04 09:35:00
4:55 AM,18.9,10.0,69,29.79,10.0,South,10.4,-,N/A,,Overcast,170,2014-01-04 09:55:00
5:15 AM,19.2,10.4,69,29.79,10.0,South,10.4,17.3,N/A,,Overcast,170,2014-01-04 10:15:00
5:35 AM,19.4,10.9,70,29.78,10.0,SSE,8.1,-,N/A,,Overcast,160,2014-01-04 10:35:00
5:55 AM,19.6,11.5,71,29.76,10.0,SSE,9.2,-,N/A,,Overcast,160,2014-01-04 10:55:00
6:10 AM,20.1,12.4,72,29.76,10.0,SSE,8.1,-,N/A,,Overcast,160,2014-01-04 11:10:00
6:30 AM,21.2,14.2,74,29.75,10.0,South,6.9,-,N/A,,Overcast,170,2014-01-04 11:30:00
6:50 AM,26.1,20.8,81,29.75,10.0,SSW,16.1,26.5,N/A,,Overcast,210,2014-01-04 11:50:00
7:10 AM,27.3,21.0,77,29.75,10.0,SSW,18.4,24.2,N/A,,Overcast,210,2014-01-04 12:10:00
7:31 AM,28.0,21.2,76,29.75,10.0,SW,17.3,27.6,N/A,,Overcast,220,2014-01-04 12:31:00
7:51 AM,28.8,21.2,73,29.76,10.0,SW,20.7,28.8,N/A,,Overcast,220,2014-01-04 12:51:00
8:11 AM,28.9,21.2,73,29.76,10.0,SW,18.4,32.2,N/A,,Overcast,230,2014-01-04 13:11:00
8:31 AM,29.3,21.2,72,29.75,10.0,SW,21.9,25.3,N/A,,Overcast,220,2014-01-04 13:31:00
8:51 AM,29.5,21.6,72,29.75,10.0,SW,19.6,31.1,N/A,,Overcast,220,2014-01-04 13:51:00
9:11 AM,29.8,21.7,72,29.76,10.0,SW,21.9,28.8,N/A,,Overcast,220,2014-01-04 14:11:00
9:31 AM,30.0,21.9,72,29.75,10.0,SW,23.0,31.1,N/A,,Overcast,220,2014-01-04 14:31:00
9:51 AM,30.2,22.1,72,29.76,10.0,SW,25.3,35.7,N/A,,Overcast,230,2014-01-04 14:51:00
10:11 AM,30.2,22.1,72,29.78,10.0,SW,19.6,31.1,N/A,,Overcast,230,2014-01-04 15:11:00
10:31 AM,30.2,22.1,72,29.78,10.0,SW,19.6,29.9,N/A,,Overcast,230,2014-01-04 15:31:00
10:52 AM,30.2,22.3,72,29.78,10.0,SW,17.3,26.5,N/A,,Overcast,220,2014-01-04 15:52:00
11:12 AM,30.2,23.0,75,29.78,7.0,SW,16.1,25.3,N/A,,Overcast,230,2014-01-04 16:12:00
11:32 AM,30.2,22.8,74,29.78,10.0,SW,17.3,25.3,N/A,,Overcast,230,2014-01-04 16:32:00
11:52 AM,30.2,23.5,76,29.77,5.0,SW,20.7,27.6,N/A,,Haze,230,2014-01-04 16:52:00
12:12 PM,30.0,24.8,81,29.77,3.0,SW,15.0,21.9,N/A,Snow,Light Snow,230,2014-01-04 17:12:00
12:32 PM,30.2,26.2,85,29.78,2.0,SW,17.3,25.3,N/A,Snow,Light Snow,230,2014-01-04 17:32:00
12:52 PM,29.8,27.1,90,29.78,1.0,SW,15.0,23.0,N/A,Snow,Light Snow,230,2014-01-04 17:52:00
1:12 PM,29.7,28.2,94,29.78,0.8,SW,15.0,25.3,N/A,Snow,Light Snow,230,2014-01-04 18:12:00
1:32 PM,29.8,28.8,96,29.78,0.8,SW,16.1,21.9,N/A,Snow,Light Snow,230,2014-01-04 18:32:00
1:53 PM,30.0,29.1,96,29.78,0.8,SW,18.4,21.9,N/A,Snow,Light Snow,220,2014-01-04 18:53:00
2:13 PM,30.0,29.1,96,29.78,0.5,SW,13.8,-,N/A,Snow,Light Snow,220,2014-01-04 19:13:00
2:33 PM,30.0,29.3,97,29.79,1.2,SW,13.8,19.6,N/A,Snow,Light Snow,230,2014-01-04 19:33:00
2:53 PM,30.0,29.3,97,29.80,1.0,WSW,15.0,18.4,N/A,Snow,Light Snow,240,2014-01-04 19:53:00
3:13 PM,30.2,29.7,98,29.80,1.0,SW,10.4,-,N/A,Snow,Light Snow,230,2014-01-04 20:13:00
3:33 PM,30.2,29.7,98,29.80,1.2,SW,10.4,-,N/A,Snow,Light Snow,220,2014-01-04 20:33:00
3:53 PM,30.2,29.8,99,29.82,1.8,SW,11.5,-,N/A,Snow,Light Snow,230,2014-01-04 20:53:00
4:13 PM,30.4,29.8,98,29.84,1.2,WSW,10.4,-,N/A,Snow,Light Snow,240,2014-01-04 21:13:00
4:34 PM,30.2,29.8,99,29.84,1.5,SW,10.4,-,N/A,Snow,Light Snow,230,2014-01-04 21:34:00
4:54 PM,30.2,30.0,99,29.86,1.2,SW,11.5,-,N/A,Snow,Light Snow,230,2014-01-04 21:54:00
5:14 PM,30.2,30.2,100,29.87,1.0,SW,8.1,-,N/A,Snow,Light Snow,230,2014-01-04 22:14:00
5:34 PM,30.2,30.2,100,29.87,1.5,SW,8.1,-,N/A,Snow,Light Snow,230,2014-01-04 22:34:00
5:54 PM,30.2,30.2,100,29.88,2.5,WSW,6.9,-,N/A,Snow,Light Snow,240,2014-01-04 22:54:00
6:14 PM,30.2,30.2,100,29.89,2.0,SW,5.8,-,N/A,Snow,Light Snow,230,2014-01-04 23:14:00
6:34 PM,30.2,30.2,100,29.90,2.5,SW,4.6,-,N/A,Snow,Light Snow,230,2014-01-04 23:34:00
6:54 PM,30.2,30.2,100,29.90,1.8,SW,3.5,-,N/A,Snow,Light Snow,230,2014-01-04 23:54:00
7:14 PM,30.2,30.2,100,29.91,2.5,Calm,Calm,-,N/A,Snow,Light Snow,0,2014-01-05 00:14:00
7:34 PM,30.2,30.2,100,29.92,7.0,WSW,4.6,-,N/A,Snow,Light Snow,240,2014-01-05 00:34:00
7:54 PM,30.2,30.2,100,29.94,7.0,WSW,4.6,-,N/A,,Overcast,240,2014-01-05 00:54:00
8:15 PM,30.2,30.2,100,29.94,7.0,SW,3.5,-,N/A,,Overcast,220,2014-01-05 01:15:00
8:35 PM,30.2,30.2,100,29.95,7.0,SW,4.6,-,N/A,,Overcast,220,2014-01-05 01:35:00
8:55 PM,30.2,30.2,100,29.94,5.0,SW,3.5,-,N/A,,Overcast,220,2014-01-05 01:55:00
9:15 PM,30.0,30.0,100,29.94,5.0,SSW,3.5,-,N/A,,Overcast,210,2014-01-05 02:15:00
9:35 PM,29.8,29.8,100,29.94,4.0,Calm,Calm,-,N/A,,Overcast,0,2014-01-05 02:35:00
9:50 PM,30.0,30.0,100,29.94,4.0,Calm,Calm,-,N/A,,Overcast,0,2014-01-05 02:50:00
10:10 PM,29.8,29.8,100,29.95,3.0,Calm,Calm,-,N/A,,Overcast,0,2014-01-05 03:10:00
10:30 PM,30.0,30.0,100,29.95,3.0,Calm,Calm,-,N/A,,Overcast,0,2014-01-05 03:30:00
10:51 PM,29.8,29.8,100,29.95,2.0,Calm,Calm,-,N/A,,Overcast,0,2014-01-05 03:51:00
11:11 PM,29.3,29.3,100,29.95,2.5,North,3.5,-,N/A,,Overcast,350,2014-01-05 04:11:00
11:31 PM,30.0,30.0,100,29.96,5.0,North,5.8,-,N/A,,Overcast,360,2014-01-05 04:31:00
11:51 PM,30.2,29.5,97,29.96,7.0,North,3.5,-,N/A,,Overcast,360,2014-01-05 04:51:00